Time,TemperatureF,DewpointF,PressureIn,WindDirection,WindDirectionDegrees,WindSpeedMPH,WindSpeedGustMPH,Humidity,HourlyPrecipIn,Conditions,Clouds,dailyrainin,SoftwareType,DateUTC
2013-02-26 00:01:00,38.0,30.0,-100.00,NE,45,2.0,7.0,73,-99.99,,,-99.99,,2013-02-26 05:01:00,
2013-02-26 00:12:00,38.0,31.0,-100.00,North,5,1.0,5.0,74,-99.99,,,-99.99,,2013-02-26 05:12:00,
2013-02-26 00:22:00,38.0,31.0,-100.00,North,5,1.0,5.0,74,-99.99,,,-99.99,,2013-02-26 05:22:00,
2013-02-26 00:32:00,37.0,30.0,-100.00,NE,55,2.0,2.0,75,-99.99,,,-99.99,,2013-02-26 05:32:00,
2013-02-26 00:43:00,37.0,31.0,-100.00,NE,55,2.0,2.0,77,-99.99,,,-99.99,,2013-02-26 05:43:00,
2013-02-26 00:52:00,37.0,31.0,-100.00,NE,55,2.0,2.0,77,-99.99,,,-99.99,,2013-02-26 05:52:00,
2013-02-26 01:02:00,37.0,31.0,-100.00,ENE,60,0.0,1.0,77,-99.99,,,-99.99,,2013-02-26 06:02:00,
2013-02-26 01:11:00,37.0,31.0,-100.00,NNE,15,3.0,4.0,77,-99.99,,,-99.99,,2013-02-26 06:11:00,
2013-02-26 01:22:00,37.0,31.0,-100.00,NNE,15,3.0,4.0,77,-99.99,,,-99.99,,2013-02-26 06:22:00,
2013-02-26 01:32:00,36.0,30.0,-100.00,NNE,25,5.0,6.0,78,-99.99,,,-99.99,,2013-02-26 06:32:00,
2013-02-26 01:42:00,36.0,30.0,-100.00,NE,35,0.0,3.0,79,-99.99,,,-99.99,,2013-02-26 06:42:00,
2013-02-26 01:52:00,36.0,30.0,-100.00,NE,35,0.0,3.0,79,-99.99,,,-99.99,,2013-02-26 06:52:00,
2013-02-26 02:01:00,35.0,30.0,-100.00,NNE,30,1.0,2.0,80,-99.99,,,-99.99,,2013-02-26 07:01:00,
2013-02-26 02:11:00,35.0,30.0,-100.00,NE,45,0.0,2.0,81,-99.99,,,-99.99,,2013-02-26 07:11:00,
2013-02-26 02:22:00,35.0,30.0,-100.00,NE,45,0.0,2.0,81,-99.99,,,-99.99,,2013-02-26 07:22:00,
2013-02-26 02:32:00,35.0,30.0,-100.00,NE,55,2.0,2.0,82,-99.99,,,-99.99,,2013-02-26 07:32:00,
2013-02-26 02:42:00,36.0,31.0,-100.00,NE,50,2.0,4.0,83,-99.99,,,-99.99,,2013-02-26 07:42:00,
2013-02-26 02:52:00,35.0,30.0,-100.00,NE,35,3.0,5.0,82,-99.99,,,-99.99,,2013-02-26 07:52:00,
2013-02-26 03:02:00,35.0,30.0,-100.00,NE,35,3.0,5.0,82,-99.99,,,-99.99,,2013-02-26 08:02:00,
2013-02-26 03:11:00,35.0,30.0,-100.00,NE,45,1.0,4.0,82,-99.99,,,-99.99,,2013-02-26 08:11:00,
2013-02-26 03:21:00,35.0,30.0,-100.00,NE,45,1.0,4.0,82,-99.99,,,-99.99,,2013-02-26 08:21:00,
2013-02-26 03:32:00,34.0,29.0,-100.00,ENE,65,2.0,4.0,82,-99.99,,,-99.99,,2013-02-26 08:32:00,
2013-02-26 03:42:00,34.0,29.0,-100.00,ENE,70,3.0,4.0,82,-99.99,,,-99.99,,2013-02-26 08:42:00,
2013-02-26 03:52:00,34.0,29.0,-100.00,ENE,70,3.0,4.0,82,-99.99,,,-99.99,,2013-02-26 08:52:00,
2013-02-26 04:02:00,34.0,30.0,-100.00,East,80,2.0,4.0,84,-99.99,,,-99.99,,2013-02-26 09:02:00,
2013-02-26 04:11:00,34.0,30.0,-100.00,East,80,3.0,5.0,84,-99.99,,,-99.99,,2013-02-26 09:11:00,
2013-02-26 04:21:00,34.0,30.0,-100.00,East,80,3.0,5.0,84,-99.99,,,-99.99,,2013-02-26 09:21:00,
2013-02-26 04:32:00,34.0,30.0,-100.00,East,90,3.0,5.0,85,-99.99,,,-99.99,,2013-02-26 09:32:00,
2013-02-26 04:43:00,34.0,30.0,-100.00,East,90,3.0,5.0,85,-99.99,,,-99.99,,2013-02-26 09:43:00,
2013-02-26 04:51:00,34.0,30.0,-100.00,East,90,3.0,5.0,85,-99.99,,,-99.99,,2013-02-26 09:51:00,
2013-02-26 05:01:00,35.0,31.0,-100.00,East,90,6.0,6.0,86,-99.99,,,-99.99,,2013-02-26 10:01:00,
2013-02-26 05:11:00,35.0,31.0,-100.00,East,90,6.0,8.0,86,-99.99,,,-99.99,,2013-02-26 10:11:00,
2013-02-26 05:21:00,35.0,31.0,-100.00,East,90,6.0,8.0,86,-99.99,,,-99.99,,2013-02-26 10:21:00,
2013-02-26 05:32:00,35.0,30.0,-100.00,East,90,6.0,7.0,85,-99.99,,,-99.99,,2013-02-26 10:32:00,
2013-02-26 05:42:00,35.0,30.0,-100.00,East,85,9.0,11.0,85,-99.99,,,-99.99,,2013-02-26 10:42:00,
2013-02-26 05:52:00,35.0,30.0,-100.00,East,85,9.0,11.0,85,-99.99,,,-99.99,,2013-02-26 10:52:00,
2013-02-26 06:01:00,34.0,30.0,-100.00,East,90,10.0,12.0,86,-99.99,,,-99.99,,2013-02-26 11:01:00,
2013-02-26 06:12:00,34.0,30.0,-100.00,East,95,10.0,14.0,86,-99.99,,,-99.99,,2013-02-26 11:12:00,
2013-02-26 06:22:00,34.0,30.0,-100.00,East,95,10.0,14.0,86,-99.99,,,-99.99,,2013-02-26 11:22:00,
2013-02-26 06:32:00,34.0,30.0,-100.00,East,95,6.0,11.0,85,-99.99,,,-99.99,,2013-02-26 11:32:00,
2013-02-26 06:42:00,35.0,31.0,-100.00,East,95,7.0,9.0,85,-99.99,,,-99.99,,2013-02-26 11:42:00,
2013-02-26 06:52:00,35.0,31.0,-100.00,East,95,7.0,9.0,85,-99.99,,,-99.99,,2013-02-26 11:52:00,
2013-02-26 07:02:00,35.0,31.0,-100.00,East,100,6.0,8.0,86,-99.99,,,-99.99,,2013-02-26 12:02:00,
2013-02-26 07:11:00,36.0,32.0,-100.00,East,100,7.0,9.0,86,-99.99,,,-99.99,,2013-02-26 12:11:00,
2013-02-26 07:22:00,36.0,32.0,-100.00,East,100,7.0,9.0,86,-99.99,,,-99.99,,2013-02-26 12:22:00,
2013-02-26 07:32:00,36.0,32.0,-100.00,East,100,7.0,9.0,86,-99.99,,,-99.99,,2013-02-26 12:32:00,
2013-02-26 07:42:00,36.0,32.0,-100.00,ESE,105,7.0,9.0,85,-99.99,,,-99.99,,2013-02-26 12:42:00,
2013-02-26 07:52:00,36.0,32.0,-100.00,ESE,105,7.0,9.0,85,-99.99,,,-99.99,,2013-02-26 12:52:00,
2013-02-26 08:02:00,37.0,31.0,-100.00,ESE,115,9.0,12.0,80,-99.99,,,-99.99,,2013-02-26 13:02:00,
2013-02-26 08:11:00,37.0,31.0,-100.00,ESE,110,10.0,15.0,77,-99.99,,,-99.99,,2013-02-26 13:11:00,
2013-02-26 08:22:00,37.0,31.0,-100.00,ESE,110,10.0,15.0,77,-99.99,,,-99.99,,2013-02-26 13:22:00,
2013-02-26 08:32:00,38.0,31.0,-100.00,ESE,120,11.0,15.0,77,-99.99,,,-99.99,,2013-02-26 13:32:00,
2013-02-26 08:42:00,38.0,31.0,-100.00,ESE,110,11.0,16.0,74,-99.99,,,-99.99,,2013-02-26 13:42:00,
2013-02-26 08:52:00,38.0,31.0,-100.00,ESE,110,11.0,16.0,74,-99.99,,,-99.99,,2013-02-26 13:52:00,
2013-02-26 09:02:00,38.0,31.0,-100.00,ESE,115,11.0,17.0,74,-99.99,,,-99.99,,2013-02-26 14:02:00,
2013-02-26 09:11:00,39.0,31.0,-100.00,ESE,110,14.0,17.0,74,-99.99,,,-99.99,,2013-02-26 14:11:00,
2013-02-26 09:22:00,39.0,31.0,-100.00,ESE,110,14.0,17.0,74,-99.99,,,-99.99,,2013-02-26 14:22:00,
2013-02-26 09:32:00,39.0,32.0,-100.00,ESE,115,11.0,18.0,76,-99.99,,,-99.99,,2013-02-26 14:32:00,
2013-02-26 09:42:00,39.0,32.0,-100.00,ESE,110,13.0,18.0,77,-99.99,,,-99.99,,2013-02-26 14:42:00,
2013-02-26 09:52:00,39.0,32.0,-100.00,ESE,110,13.0,18.0,77,-99.99,,,-99.99,,2013-02-26 14:52:00,
2013-02-26 10:02:00,39.0,33.0,-100.00,ESE,105,12.0,17.0,77,-99.99,,,-99.99,,2013-02-26 15:02:00,
2013-02-26 10:12:00,40.0,33.0,-100.00,ESE,105,13.0,17.0,78,-99.99,,,-99.99,,2013-02-26 15:12:00,
2013-02-26 10:22:00,40.0,33.0,-100.00,ESE,105,13.0,17.0,78,-99.99,,,-99.99,,2013-02-26 15:22:00,
2013-02-26 10:32:00,40.0,34.0,-100.00,ESE,105,13.0,18.0,78,-99.99,,,-99.99,,2013-02-26 15:32:00,
2013-02-26 10:42:00,40.0,34.0,-100.00,ESE,105,12.0,19.0,78,-99.99,,,-99.99,,2013-02-26 15:42:00,
2013-02-26 10:52:00,40.0,34.0,-100.00,ESE,105,12.0,19.0,78,-99.99,,,-99.99,,2013-02-26 15:52:00,
2013-02-26 11:02:00,41.0,34.0,-100.00,East,100,12.0,17.0,78,-99.99,,,-99.99,,2013-02-26 16:02:00,
2013-02-26 11:11:00,41.0,35.0,-100.00,ESE,105,12.0,17.0,77,-99.99,,,-99.99,,2013-02-26 16:11:00,
2013-02-26 11:22:00,41.0,35.0,-100.00,ESE,105,12.0,17.0,77,-99.99,,,-99.99,,2013-02-26 16:22:00,
2013-02-26 11:32:00,42.0,35.0,-100.00,East,100,12.0,17.0,77,-99.99,,,-99.99,,2013-02-26 16:32:00,
2013-02-26 11:42:00,42.0,35.0,-100.00,ESE,115,15.0,21.0,75,-99.99,,,-99.99,,2013-02-26 16:42:00,
2013-02-26 11:52:00,42.0,35.0,-100.00,ESE,115,15.0,21.0,75,-99.99,,,-99.99,,2013-02-26 16:52:00,
2013-02-26 12:01:00,42.0,35.0,-100.00,ESE,105,15.0,22.0,75,-99.99,,,-99.99,,2013-02-26 17:01:00,
2013-02-26 12:11:00,43.0,35.0,-100.00,East,100,15.0,24.0,72,-99.99,,,-99.99,,2013-02-26 17:11:00,
2013-02-26 12:22:00,43.0,35.0,-100.00,East,100,15.0,24.0,72,-99.99,,,-99.99,,2013-02-26 17:22:00,
2013-02-26 12:32:00,44.0,35.0,-100.00,East,95,14.0,23.0,70,-99.99,,,-99.99,,2013-02-26 17:32:00,
2013-02-26 12:42:00,44.0,34.0,-100.00,East,95,16.0,25.0,69,-99.99,,,-99.99,,2013-02-26 17:42:00,
2013-02-26 12:52:00,44.0,34.0,-100.00,East,95,16.0,25.0,69,-99.99,,,-99.99,,2013-02-26 17:52:00,
2013-02-26 13:02:00,44.0,34.0,-100.00,East,90,16.0,24.0,69,-99.99,,,-99.99,,2013-02-26 18:02:00,
2013-02-26 13:12:00,43.0,35.0,-100.00,East,90,18.0,25.0,71,-99.99,,,-99.99,,2013-02-26 18:12:00,
2013-02-26 13:21:00,43.0,35.0,-100.00,East,90,18.0,25.0,71,-99.99,,,-99.99,,2013-02-26 18:21:00,
2013-02-26 13:32:00,43.0,35.0,-100.00,East,90,15.0,27.0,72,-99.99,,,-99.99,,2013-02-26 18:32:00,
2013-02-26 13:42:00,43.0,35.0,-100.00,East,85,20.0,26.0,73,-99.99,,,-99.99,,2013-02-26 18:42:00,
2013-02-26 13:52:00,43.0,35.0,-100.00,East,85,20.0,26.0,73,-99.99,,,-99.99,,2013-02-26 18:52:00,
2013-02-26 14:11:00,43.0,35.0,-100.00,East,85,19.0,27.0,75,-99.99,,,-99.99,,2013-02-26 19:11:00,
2013-02-26 14:22:00,43.0,35.0,-100.00,East,85,19.0,27.0,75,-99.99,,,-99.99,,2013-02-26 19:22:00,
2013-02-26 14:32:00,43.0,36.0,-100.00,East,90,20.0,25.0,76,-99.99,,,-99.99,,2013-02-26 19:32:00,
2013-02-26 14:42:00,43.0,35.0,-100.00,East,90,17.0,27.0,75,-99.99,,,-99.99,,2013-02-26 19:42:00,
2013-02-26 14:52:00,43.0,35.0,-100.00,East,90,17.0,27.0,75,-99.99,,,-99.99,,2013-02-26 19:52:00,
2013-02-26 15:01:00,43.0,36.0,-100.00,East,90,20.0,30.0,76,-99.99,,,-99.99,,2013-02-26 20:01:00,
2013-02-26 15:11:00,43.0,36.0,-100.00,East,95,19.0,27.0,76,-99.99,,,-99.99,,2013-02-26 20:11:00,
2013-02-26 15:22:00,43.0,36.0,-100.00,East,95,19.0,27.0,76,-99.99,,,-99.99,,2013-02-26 20:22:00,
2013-02-26 16:31:00,43.0,36.0,-100.00,East,100,15.0,26.0,77,-99.99,,,-99.99,,2013-02-26 21:31:00,
2013-02-26 16:41:00,43.0,36.0,-100.00,East,100,15.0,26.0,77,-99.99,,,-99.99,,2013-02-26 21:41:00,
2013-02-26 17:01:00,43.0,37.0,-100.00,East,100,17.0,24.0,78,-99.99,,,-99.99,,2013-02-26 22:01:00,
2013-02-26 17:11:00,43.0,37.0,-100.00,East,100,16.0,25.0,79,-99.99,,,-99.99,,2013-02-26 22:11:00,
2013-02-26 17:21:00,43.0,37.0,-100.00,East,100,16.0,25.0,79,-99.99,,,-99.99,,2013-02-26 22:21:00,
2013-02-26 17:32:00,44.0,37.0,-100.00,East,100,17.0,26.0,78,-99.99,,,-99.99,,2013-02-26 22:32:00,
2013-02-26 17:42:00,44.0,37.0,-100.00,East,100,17.0,27.0,78,-99.99,,,-99.99,,2013-02-26 22:42:00,
2013-02-26 17:51:00,44.0,37.0,-100.00,East,100,17.0,27.0,78,-99.99,,,-99.99,,2013-02-26 22:51:00,
2013-02-26 18:01:00,43.0,38.0,-100.00,ENE,65,17.0,26.0,80,-99.99,,,-99.99,,2013-02-26 23:01:00,
2013-02-26 18:11:00,43.0,38.0,-100.00,South,170,18.0,26.0,81,-99.99,,,-99.99,,2013-02-26 23:11:00,
2013-02-26 18:21:00,43.0,38.0,-100.00,South,170,18.0,26.0,81,-99.99,,,-99.99,,2013-02-26 23:21:00,
2013-02-26 18:32:00,44.0,39.0,-100.00,SSW,195,22.0,38.0,85,-99.99,,,-99.99,,2013-02-26 23:32:00,
2013-02-26 18:42:00,44.0,40.0,-100.00,SSW,210,24.0,33.0,86,-99.99,,,-99.99,,2013-02-26 23:42:00,
2013-02-26 18:52:00,44.0,40.0,-100.00,SSW,210,24.0,33.0,86,-99.99,,,-99.99,,2013-02-26 23:52:00,
2013-02-26 19:11:00,43.0,40.0,-100.00,SW,225,23.0,34.0,90,-99.99,,,-99.99,,2013-02-27 00:11:00,
2013-02-26 19:22:00,43.0,40.0,-100.00,SW,225,23.0,34.0,90,-99.99,,,-99.99,,2013-02-27 00:22:00,
2013-02-26 19:32:00,43.0,40.0,-100.00,SSW,210,23.0,35.0,90,-99.99,,,-99.99,,2013-02-27 00:32:00,
2013-02-26 19:42:00,43.0,40.0,-100.00,SW,225,21.0,35.0,90,-99.99,,,-99.99,,2013-02-27 00:42:00,
2013-02-26 19:51:00,43.0,40.0,-100.00,SW,225,21.0,35.0,90,-99.99,,,-99.99,,2013-02-27 00:51:00,
2013-02-26 20:01:00,43.0,40.0,-100.00,SSW,210,23.0,36.0,89,-99.99,,,-99.99,,2013-02-27 01:01:00,
2013-02-26 20:11:00,44.0,41.0,-100.00,SSW,210,27.0,37.0,90,-99.99,,,-99.99,,2013-02-27 01:11:00,
2013-02-26 20:22:00,44.0,41.0,-100.00,SSW,210,27.0,37.0,90,-99.99,,,-99.99,,2013-02-27 01:22:00,
2013-02-26 20:32:00,44.0,41.0,-100.00,SSW,210,22.0,39.0,90,-99.99,,,-99.99,,2013-02-27 01:32:00,
2013-02-26 20:42:00,44.0,42.0,-100.00,SSW,205,21.0,35.0,91,-99.99,,,-99.99,,2013-02-27 01:42:00,
2013-02-26 20:52:00,44.0,42.0,-100.00,SSW,205,21.0,35.0,91,-99.99,,,-99.99,,2013-02-27 01:52:00,
2013-02-26 21:02:00,44.0,42.0,-100.00,SW,220,18.0,35.0,91,-99.99,,,-99.99,,2013-02-27 02:02:00,
2013-02-26 21:16:00,44.0,42.0,-100.00,SSW,200,14.0,31.0,91,-99.99,,,-99.99,,2013-02-27 02:16:00,
2013-02-26 21:24:00,44.0,42.0,-100.00,SSW,200,14.0,31.0,91,-99.99,,,-99.99,,2013-02-27 02:24:00,
2013-02-26 21:32:00,44.0,42.0,-100.00,SSW,200,18.0,30.0,91,-99.99,,,-99.99,,2013-02-27 02:32:00,
2013-02-26 21:42:00,44.0,42.0,-100.00,SSW,205,23.0,30.0,91,-99.99,,,-99.99,,2013-02-27 02:42:00,
2013-02-26 21:52:00,44.0,42.0,-100.00,SSW,205,23.0,30.0,91,-99.99,,,-99.99,,2013-02-27 02:52:00,
2013-02-26 22:02:00,44.0,42.0,-100.00,SSW,195,20.0,27.0,91,-99.99,,,-99.99,,2013-02-27 03:02:00,
2013-02-26 22:11:00,45.0,43.0,-100.00,SSW,200,21.0,34.0,92,-99.99,,,-99.99,,2013-02-27 03:11:00,
2013-02-26 22:22:00,45.0,43.0,-100.00,SSW,200,21.0,34.0,92,-99.99,,,-99.99,,2013-02-27 03:22:00,
2013-02-26 22:32:00,45.0,43.0,-100.00,SSW,200,23.0,37.0,92,-99.99,,,-99.99,,2013-02-27 03:32:00,
2013-02-26 22:42:00,45.0,43.0,-100.00,SSW,200,23.0,34.0,92,-99.99,,,-99.99,,2013-02-27 03:42:00,
2013-02-26 22:52:00,45.0,43.0,-100.00,SSW,200,23.0,34.0,92,-99.99,,,-99.99,,2013-02-27 03:52:00,
2013-02-26 23:02:00,45.0,43.0,-100.00,SSW,195,24.0,36.0,92,-99.99,,,-99.99,,2013-02-27 04:02:00,
2013-02-26 23:12:00,45.0,43.0,-100.00,SSW,195,23.0,30.0,92,-99.99,,,-99.99,,2013-02-27 04:12:00,
2013-02-26 23:22:00,45.0,43.0,-100.00,SSW,195,23.0,30.0,92,-99.99,,,-99.99,,2013-02-27 04:22:00,
2013-02-26 23:32:00,45.0,43.0,-100.00,SSW,195,23.0,30.0,92,-99.99,,,-99.99,,2013-02-27 04:32:00,
2013-02-26 23:42:00,45.0,43.0,-100.00,South,185,15.0,26.0,92,-99.99,,,-99.99,,2013-02-27 04:42:00,
2013-02-26 23:52:00,45.0,43.0,-100.00,South,185,15.0,26.0,92,-99.99,,,-99.99,,2013-02-27 04:52:00,